Tracking 20241 objects as of 26-Jan-2020
HD Live streaming from Space Station
objects crossing your sky now

COSMOS 2251 DEB

Track COSMOS 2251 DEB now!
10-day predictions


NORAD ID: 39110
Int'l Code: 1993-036BTZ
Perigee: 610.9 km
Apogee: 769.1 km
Inclination: 74.0 °
Period: 98.4 minutes
Semi major axis: 7061 km
RCS: 0.003 m2 (small)
Launch date: June 16, 1993
Source: Commonwealth of Independent States (former USSR) (CIS)
Launch site: PLESETSK MISSILE AND SPACE COMPLEX (PKMTR)

Note: This is SATELLITE DEBRIS
aabbcc
Your satellite tracking list
Your tracking list is empty




NASA's NSSDC Master Catalog

Two Line Element Set (TLE):
1 39110U 93036BTZ 20021.03253882  .00000122  00000-0  28288-4 0  9998
2 39110  73.9608 267.5862 0112037 285.5093 136.6434 14.63188506397807
Source of the keplerian elements: AFSPC